Weather History for Fort Myers Airport, FL

Change the Weather History Date:

Friday, November 23, 2012

  Actual Average Record
Temperature  
Mean Temperature 63 °F -  
Max Temperature 75 °F 79 °F 95 °F (1986)
Min Temperature 51 °F 59 °F 40 °F (1956)
Degree Days  
Heating Degree Days 2    
Growing Degree Days 13 (Base 50)    
Moisture  
Dew Point 40 °F    
Average Humidity 48    
Maximum Humidity 75    
Minimum Humidity 18    
Precipitation  
Precipitation 0.00 in - - ()
Sea Level Pressure  
Sea Level Pressure 30.13 in    
Wind  
Wind Speed 6 mph (North)    
Max Wind Speed 10 mph    
Max Gust Speed -    
Visibility 10 miles    
Events      
Averages and records for this station are not official NWS values.
T = Trace of Precipitation, MM = Missing Value Source: NWS Daily Summary

Daily Weather History Graph

Daily Weather History Graph

Search for Another Location

Airport:

Trip Planner

Search our weather history database for the weather conditions in past years. The results will help you decide how hot, cold, wet, or windy it might be!

Date:

Astronomy

Nov. 23, 2012 Rise Set
Actual Time 6:52 AM EST 5:34 PM EST
Civil Twilight 6:27 AM EST 5:59 PM EST
Nautical Twilight 5:59 AM EST 6:27 PM EST
Astronomical Twilight 5:31 AM EST 6:55 PM EST
Moon 2:29 PM EST (11/23) 2:32 AM EST (11/23)
Length of Visible Light 11h 31m
Length of Day
10h 42m
Waxing Gibbous, 79% of the Moon is Illuminated
Nov 23
Waxing Gibbous
Nov 28
Full
Dec 6
Last Quarter
Dec 13
New
Dec 20
First Quarter

Hourly Weather History & Observations

Time (EST) Temp. Dew Point Humidity Pressure Visibility Wind Dir Wind Speed Gust Speed Precip Events Conditions
12:53 AM 53.1 °F 33.1 °F 47% 30.14 in 10.0 mi North 5.8 mph - N/A   Clear
1:53 AM 52.0 °F 34.0 °F 50% 30.14 in 10.0 mi NNE 4.6 mph - N/A   Clear
2:53 AM 51.1 °F 37.0 °F 59% 30.13 in 10.0 mi North 5.8 mph - N/A   Clear
3:53 AM 51.1 °F 39.0 °F 63% 30.12 in 10.0 mi North 5.8 mph - N/A   Clear
4:53 AM 51.1 °F 39.0 °F 63% 30.13 in 10.0 mi North 8.1 mph - N/A   Clear
5:53 AM 51.1 °F 39.0 °F 63% 30.14 in 10.0 mi North 6.9 mph - N/A   Clear
6:53 AM 51.1 °F 39.0 °F 63% 30.15 in 10.0 mi NNE 6.9 mph - N/A   Clear
7:53 AM 54.0 °F 39.0 °F 57% 30.17 in 10.0 mi North 6.9 mph - N/A   Clear
8:53 AM 60.1 °F 41.0 °F 49% 30.19 in 10.0 mi NNE 8.1 mph - N/A   Clear
9:53 AM 66.0 °F 45.0 °F 47% 30.19 in 10.0 mi North 10.4 mph - N/A   Clear
10:53 AM 69.1 °F 48.0 °F 47% 30.19 in 10.0 mi North 9.2 mph - N/A   Clear
11:53 AM 73.0 °F 48.9 °F 42% 30.16 in 10.0 mi NNW 8.1 mph - N/A   Clear
12:53 PM 73.9 °F 46.9 °F 38% 30.13 in 10.0 mi NNW 8.1 mph - N/A   Clear
1:53 PM 75.0 °F 45.0 °F 34% 30.10 in 10.0 mi North 8.1 mph - N/A   Clear
2:53 PM 75.0 °F 42.1 °F 31% 30.09 in 10.0 mi North 8.1 mph - N/A   Clear
3:53 PM 73.9 °F 33.1 °F 22% 30.08 in 10.0 mi NNE 5.8 mph - N/A   Clear
4:53 PM 72.0 °F 26.1 °F 18% 30.10 in 10.0 mi North 4.6 mph - N/A   Clear
5:53 PM 66.9 °F 30.0 °F 25% 30.10 in 10.0 mi North 4.6 mph - N/A   Clear
6:53 PM 64.0 °F 33.1 °F 31% 30.11 in 10.0 mi North 4.6 mph - N/A   Clear
7:53 PM 61.0 °F 36.0 °F 39% 30.13 in 10.0 mi North 4.6 mph - N/A   Clear
8:53 PM 59.0 °F 42.1 °F 53% 30.14 in 10.0 mi NW 4.6 mph - N/A   Clear
9:53 PM 57.9 °F 45.0 °F 62% 30.14 in 10.0 mi Calm Calm - N/A   Clear
10:53 PM 55.0 °F 46.0 °F 72% 30.13 in 10.0 mi Calm Calm - N/A   Clear
11:53 PM 54.0 °F 46.0 °F 75% 30.12 in 10.0 mi Calm Calm - N/A   Clear